Regional Weather Roundup
Issued by NWS

Home | Current Version | Previous Version | Text Only | Print | Product List | Glossary Off
Versions: 1 2 3 4 5 6 7 8 9 10 11 12 13 14 15 16 17 18 19 20 21 22 23 24 25 26 27 28 29 30 31 32 33 34 35 36 37 38 39 40 41 42 43 44 45 46 47 48 49 50

000
ASUS44 KMEG 192110
RWRTN
TENNESSEE HOURLY STATE WEATHER ROUNDUP
NATIONAL WEATHER SERVICE MEMPHIS TN
400 PM CDT SAT APR 19 2014

TNZ002-004-019-021-049-052-054-088>092-192200-
WEST TENNESSEE

CITY           SKY/WX    TMP DP  RH WIND       PRES   REMARKS
MEMPHIS INTL   MOSUNNY   78  41  26 CALM      30.13F
NWS MEMPHIS      N/A     77 N/A N/A MISG        N/A
JACKSON        SUNNY     79  38  22 N9        30.14F
DYERSBURG      SUNNY     75  39  27 NE5       30.16F
UNION CITY     SUNNY     75  39  27 NE12      30.15F
PARIS          SUNNY     74  38  27 NE5       30.15F
LEXINGTON      SUNNY     77  36  22 NE12G21   30.13S
SILERTON         N/A     79  38  22 N5          N/A
SAVANNAH       SUNNY     79  40  24 N9        30.12F
$$

TNZ008-025-027-028-033-062-065-066-192200-
NORTH MIDDLE TENNESSEE

CITY           SKY/WX    TMP DP  RH WIND       PRES   REMARKS
NASHVILLE      MOSUNNY   77  41  27 NE15G22   30.14F
DICKSON        SUNNY     73  37  27 NE13      30.15F
PORTLAND         N/A     73  39  29 NE14      30.15F
CLARKSVILLE    SUNNY     75  43  31 E7        30.15F
SMYRNA         SUNNY     78  41  26 NE12      30.14F
MURFREESBORO   SUNNY     76  39  26 NE12      30.13F
COOKEVILLE     SUNNY     73  39  29 NE8       30.13S
LIVINGSTON     PTSUNNY   70  38  31 NE10      30.15F
GALLATIN       SUNNY     75  43  31 N13       30.15F
CROSSVILLE     PTSUNNY   70  34  26 NE10G18   30.15F
$$

TNZ061-075-076-078-094-096-097-192200-
SOUTH MIDDLE TENNESSEE

CITY           SKY/WX    TMP DP  RH WIND       PRES   REMARKS
LEWISBURG      SUNNY     75  40  28 NE6       30.13F
FAYETTEVILLE   MOSUNNY   72  41  32 N13       30.13F
TULLAHOMA      SUNNY     72  37  28 VRB7      30.14F
WINCHESTER     SUNNY     72  41  33 N9        30.13S
MCMINNVILLE    SUNNY     73  41  31 NE9       30.13F
COLUMBIA       SUNNY     75  52  43 N9        30.12F
SHELBYVILLE    SUNNY     73  43  33 NE5       30.14F
$$

TNZ017-018-042-046-047-192200-
NORTHEAST TENNESSEE

CITY           SKY/WX    TMP DP  RH WIND       PRES   REMARKS
TRI CITIES     CLOUDY    69  32  25 NE10G18   30.13F
ELIZABETHTON   CLEAR     64  36  34 CALM      30.13S
$$

TNZ012-013-036-069-073-074-192200-
CENTRAL EAST TENNESSEE

CITY           SKY/WX    TMP DP  RH WIND       PRES   REMARKS
KNOXVILLE      LGT RAIN  61  47  59 SE6       30.13F
OAK RIDGE      CLOUDY    69  39  33 E6        30.14S
$$

TNZ083-085-099-192200-
SOUTHEAST TENNESSEE

CITY           SKY/WX    TMP DP  RH WIND       PRES   REMARKS
CHATTANOOGA    CLOUDY    64  42  44 E5        30.14F
$$

SKY/WX REPORTED AS FAIR MEANS FEW OR NO CLOUDS BELOW
12 THOUSAND FEET.




USA.gov is the U.S. government's official web portal to all federal, state and local government web resources and services.